#timestamp,LO_Frequency,Hit,StdDev 
1636743615.2,286047009.8,N
1636743635.1,286047011.9,N
1636743636.0,286047011.9,N
1636743655.8,286047008.8,N
1636743675.6,286047015.5,Y
1636743695.5,286047009.7,P
1636743715.3,286047006.4,N
1636743735.2,286047006.9,N
1636743755.9,286047007.8,N
1636743775.7,286047003.2,N
1636743795.6,286046998.2,N
1636743815.4,286046994.9,N
1636743835.2,286046993.0,N
1636743855.1,286046989.3,N
1636743856.0,286046989.3,N
1636743875.8,286046987.7,N
1636743895.7,286046988.4,N
1636743915.5,286046985.9,N
1636743935.3,286046986.1,N
1636743955.2,286046985.9,N
1636743975.9,286046987.1,N
1636743995.7,286046985.3,N
1636744015.6,286046986.8,N
1636744035.4,286046987.3,N
1636744055.2,286046982.2,N
1636744075.1,286046985.2,N
1636744076.0,286046985.2,N
1636744095.8,286046980.6,N
1636744115.7,286046981.2,N
1636744135.5,286046981.2,N
1636744155.3,286046985.2,N
1636744175.2,286046986.1,N
1636744195.0,286046989.8,N
1636744195.9,286046989.8,N
1636744215.8,286046988.3,N
1636744235.6,286046989.6,N
1636744255.4,286046989.6,N
1636744275.3,286046992.5,N
1636744295.1,286046992.8,N
1636744315.8,286047002.6,N
1636744335.7,286047004.2,N
1636744355.5,286047005.9,N
1636744375.4,286047002.1,N
1636744395.2,286046996.4,N
1636744415.0,286046991.5,N
1636744415.9,286046991.5,N
1636744435.8,286046982.3,N
1636744455.6,286046981.3,N
1636744475.4,286046974.6,Y
1636744495.3,286046984.1,P
1636744515.1,286046988.1,P
1636744535.9,286046994.5,N
1636744555.7,286046998.7,N
1636744575.5,286047002.6,N
1636744595.4,286046995.5,N
1636744615.2,286046994.8,N
1636744635.0,286046996.1,N
1636744635.9,286046996.1,N
1636744655.8,286047001.9,N
1636744675.6,286046997.2,N
1636744695.5,286046996.3,N
1636744715.3,286046995.0,N
1636744735.1,286046996.5,N
1636744755.9,286046999.1,N
1636744775.7,286046994.7,N
1636744795.6,286046988.7,N
1636744815.4,286046987.7,N
1636744835.2,286046986.9,N
1636744855.1,286046986.0,N
1636744856.0,286046986.0,N
1636744875.8,286046983.6,Y
1636744895.6,286046987.1,P
1636744915.5,286046984.9,P
1636744935.3,286046982.1,P
1636744955.2,286046985.4,Y
1636744975.9,286047001.2,P
1636744995.7,286046997.5,N
1636745015.6,286046996.0,N
1636745035.4,286046999.6,N
1636745055.3,286046993.6,N
1636745075.1,286046991.7,N
1636745076.0,286046991.7,N
1636745095.8,286046993.2,N
1636745115.7,286046989.6,N
1636745135.5,286046988.6,N
1636745155.3,286046994.4,N
1636745175.2,286046990.2,N
1636745195.0,286046994.4,N
1636745195.9,286046994.4,N
1636745215.8,286046994.4,N
1636745235.6,286046987.2,Y
1636745255.4,286046993.9,P
1636745275.3,286046990.2,P
1636745295.1,286046986.0,P
1636745315.9,286046987.4,Y
1636745335.7,286047001.1,P
1636745355.5,286047003.8,N
1636745375.4,286047009.2,N
1636745395.2,286047012.1,N
1636745415.0,286047014.8,N
1636745415.9,286047014.8,N
1636745435.8,286047019.7,N
1636745455.6,286047017.6,N
1636745475.5,286047016.2,N
1636745495.3,286047017.6,N
1636745515.1,286047019.9,N
1636745535.9,286047017.5,N
1636745555.7,286047016.1,N
1636745575.5,286047017.9,N
1636745595.4,286047017.5,N
1636745615.2,286047017.4,N
1636745635.0,286047017.4,N
1636745636.0,286047017.4,N
1636745655.8,286047019.7,N
1636745675.6,286047016.2,N
1636745695.5,286047020.4,N
1636745715.3,286047018.3,N
1636745735.1,286047017.3,N
1636745755.9,286047020.0,N
1636745775.7,286047018.6,N
1636745795.5,286047018.5,N
1636745815.4,286047015.0,N
1636745835.2,286047017.0,N
1636745855.1,286047016.8,N
1636745856.0,286047016.8,N
1636745875.8,286047017.9,Y
1636745895.6,286047004.0,P
1636745915.5,286047009.1,N
1636745935.3,286047007.8,N
1636745955.2,286047008.4,N
1636745975.9,286047009.9,N
1636745995.7,286047011.3,Y
1636746015.6,286047005.9,P
1636746035.4,286047007.2,P
1636746055.2,286047006.5,P
1636746075.1,286047012.0,Y
1636746076.0,286047012.0,P
1636746095.8,286047000.2,N
1636746115.7,286046995.1,N
1636746135.5,286046996.0,N
1636746155.3,286046994.1,N
1636746175.2,286046994.1,N
1636746195.0,286046991.8,N
1636746195.9,286046991.8,N
1636746215.7,286046989.6,N
1636746235.6,286046985.5,N
1636746255.4,286046982.5,N
1636746275.3,286046979.9,N
1636746295.1,286046974.8,N
1636746296.0,286046974.8,N
1636746315.8,286046972.4,N
1636746335.7,286046965.3,Y
1636746355.5,286046968.1,P
1636746375.3,286046963.6,P
1636746395.2,286046961.2,P
1636746415.0,286046951.4,Y
1636746415.9,286046951.4,P
1636746435.8,286046972.6,N
1636746455.6,286046969.8,P
1636746475.5,286046966.2,Y
1636746495.3,286047000.0,P
1636746515.1,286046988.6,N
1636746535.9,286046983.5,N
1636746555.7,286046974.9,N
1636746575.5,286046976.2,N
1636746595.4,286046982.6,N
1636746615.2,286046986.8,N
1636746635.1,286046989.3,N
1636746636.0,286046989.3,N
1636746655.8,286046993.2,N
1636746675.6,286046994.2,N
1636746695.5,286046995.4,N
1636746715.3,286046998.1,N
1636746735.1,286047003.6,N
1636746755.9,286047005.9,N
1636746775.7,286047006.5,N
1636746795.6,286047009.5,N
1636746815.4,286047013.8,N
1636746835.2,286047015.4,N
1636746855.1,286047019.4,N
1636746856.0,286047019.4,N
1636746875.8,286047022.7,N
1636746895.6,286047026.5,N
1636746915.5,286047031.2,N
1636746935.3,286047030.1,N
1636746955.2,286047031.3,N
1636746975.9,286047028.2,N
1636746995.7,286047031.1,N
1636747015.6,286047031.2,N
1636747035.4,286047030.5,N
1636747055.2,286047030.7,N
1636747075.1,286047031.9,N
1636747076.0,286047031.9,N
1636747095.8,286047032.5,N
1636747115.7,286047031.1,N
1636747135.5,286047029.8,N
1636747155.3,286047026.1,N
1636747175.2,286047026.4,N
1636747195.0,286047022.1,N
1636747195.9,286047022.1,N
